Terminal Aerodrome Forecast
Issued by NWS Wilmington, OH

Current Version | Previous Version | Text Only | Print | Product List | Glossary Off
Versions: 1 2 3 4 5 6 7 8 9 10 11 12 13 14 15 16 17

597
FTUS41 KILN 170046 AAA
TAFILN
TAF AMD
KILN 170046Z 1701/1724 27014G22KT P6SM VCSH SCT025 OVC050
     FM170200 26014KT P6SM SCT025 OVC040
     FM171000 26014G20KT P6SM BKN020 OVC035
     FM171400 27018G25KT P6SM BKN025 OVC040
     FM172000 28014G21KT P6SM SCT250
     FM172300 29011KT P6SM SCT250=

USA.gov is the U.S. government's official web portal to all federal, state and local government web resources and services.